GW5499 Weather Reports


Display with metric or nautical units.
time (UTC)temp
F
wind
direction
speed
MPH
gust
MPH
rain 1hr
in
rain 24hr
in
rain mn
in
humidity
%
barometer
mb
20260509150025 75 23 1.0 4.0 0.00 0.03 0.00 88 1010.2
20260509144528 74 205 1.0 6.0 0.00 0.03 0.00 87 1010.2
20260509143017 74 119 1.0 5.0 0.00 0.03 0.00 88 1010.2
20260509141529 73 82 0.0 4.0 0.00 0.03 0.00 90 1010.1
20260509140024 71 84 1.0 4.0 0.00 0.03 0.00 93 1010.4
20260509134528 70 119 0.0 2.0 0.00 0.03 0.00 94 1010.6
20260509133029 69 155 1.0 3.0 0.00 0.03 0.00 94 1010.7
20260509131529 69 136 0.0 3.0 0.00 0.03 0.00 93 1010.7
20260509130029 69 69 2.0 4.0 0.00 0.03 0.00 93 1010.8
20260509124527 69 80 1.0 3.0 0.00 0.03 0.00 93 1010.9
20260509123028 70 44 2.0 2.0 0.00 0.03 0.00 93 1010.7
20260509121523 70 126 0.0 0.0 0.00 0.03 0.00 93 1010.6
20260509120012 70 126 0.0 0.0 0.00 0.03 0.00 92 1010.6
20260509114506 70 126 0.0 1.0 0.00 0.03 0.00 92 1010.2
20260509113008 69 230 0.0 2.0 0.00 0.03 0.00 92 1009.9
20260509111509 69 252 0.0 2.0 0.00 0.03 0.00 92 1009.8
20260509110009 69 323 1.0 2.0 0.00 0.03 0.00 91 1009.4
20260509104503 69 209 0.0 3.0 0.00 0.03 0.00 92 1008.8
20260509103009 69 118 1.0 3.0 0.00 0.03 0.00 92 1008.2
20260509101508 68 176 2.0 5.0 0.00 0.03 0.00 91 1008.1
20260509100014 69 186 1.0 3.0 0.00 0.03 0.00 90 1008.4
20260509094511 69 151 0.0 3.0 0.00 0.03 0.00 90 1008.8
20260509093008 69 144 0.0 2.0 0.00 0.03 0.00 89 1008.9
20260509091520 69 137 0.0 2.0 0.00 0.03 0.00 89 1009.0
20260509090010 69 168 0.0 4.0 0.00 0.03 0.00 89 1009.1
20260509084519 69 142 0.0 1.0 0.00 0.03 0.00 90 1009.5
20260509083012 69 103 0.0 0.0 0.00 0.03 0.00 89 1009.8
20260509081509 69 162 0.0 2.0 0.00 0.03 0.00 89 1010.1
20260509080021 70 77 0.0 0.0 0.00 0.03 0.00 88 1010.5
20260509074514 70 77 0.0 2.0 0.00 0.03 0.00 87 1010.4
20260509073032 70 162 0.0 3.0 0.00 0.03 0.00 87 1010.1
20260509071507 70 146 0.0 2.0 0.00 0.03 0.00 87 1010.2
20260509070014 70 125 0.0 2.0 0.00 0.03 0.00 88 1010.2
20260509064514 70 161 0.0 0.0 0.00 0.03 0.00 89 1010.8
20260509063013 70 86 0.0 0.0 0.00 0.03 0.00 89 1010.9
20260509061513 69 186 0.0 1.0 0.00 0.03 0.00 89 1010.9
20260509060015 69 110 0.0 2.0 0.00 0.03 0.00 89 1010.9
20260509054528 69 186 0.0 2.0 0.00 0.03 0.00 91 1010.8
20260509053016 68 205 0.0 5.0 0.00 0.03 0.00 91 1010.6
20260509051517 68 224 1.0 6.0 0.00 0.03 0.00 91 1010.1
20260509050025 68 142 0.0 5.0 0.00 0.03 0.00 91 1010.1
20260509044515 69 132 2.0 4.0 0.00 0.03 0.03 90 1011.0
20260509043035 69 360 4.0 8.0 0.00 0.03 0.03 87 1011.4
20260509041520 70 333 4.0 8.0 0.00 0.03 0.03 85 1011.0
20260509040019 69 36 2.0 8.0 0.00 0.03 0.03 88 1010.7
20260509034513 70 5 0.0 0.0 0.00 0.03 0.03 87 1010.1
20260509033015 70 88 0.0 0.0 0.00 0.03 0.03 86 1010.0
20260509031521 70 118 0.0 1.0 0.00 0.03 0.03 87 1009.9
20260509030019 69 149 0.0 0.0 0.00 0.03 0.03 89 1009.8
20260509024520 68 196 0.0 1.0 0.00 0.03 0.03 91 1009.8
20260509023022 68 196 0.0 0.0 0.00 0.03 0.03 90 1009.5
20260509021522 67 188 0.0 0.0 0.00 0.03 0.03 90 1009.3
20260509020021 67 284 0.0 0.0 0.00 0.03 0.03 89 1009.5
20260509014520 67 284 0.0 0.0 0.00 0.03 0.03 88 1009.2
20260509013040 68 285 0.0 2.0 0.00 0.03 0.03 87 1008.8
20260509011520 70 267 0.0 0.0 0.00 0.03 0.03 85 1008.6
20260509010026 71 272 0.0 0.0 0.00 0.03 0.03 84 1008.5
20260509004540 72 272 0.0 2.0 0.00 0.03 0.03 81 1008.4
20260509003027 73 181 0.0 2.0 0.00 0.03 0.03 77 1008.4
20260509001522 74 166 0.0 2.0 0.00 0.03 0.03 75 1008.5
20260509000023 74 160 0.0 3.0 0.00 0.03 0.03 73 1008.7
20260508234504 75 174 1.0 4.0 0.00 0.03 0.03 73 1009.0
20260508233007 75 235 1.0 8.0 0.00 0.03 0.03 73 1009.0
20260508231512 76 198 3.0 7.0 0.00 0.03 0.03 71 1009.0
20260508230035 75 167 2.0 5.0 0.01 0.03 0.03 70 1009.0
20260508224523 75 209 2.0 3.0 0.03 0.03 0.03 74 1008.8
20260508223009 75 62 2.0 12.0 0.03 0.03 0.03 74 1008.2
20260508221523 69 236 2.0 5.0 0.03 0.03 0.03 88 1006.6
20260508220019 70 143 0.0 3.0 0.02 0.02 0.02 85 1009.6
20260508214524 72 173 0.0 3.0 0.00 0.00 0.00 77 1009.9
20260508213006 76 177 1.0 4.0 0.00 0.00 0.00 67 1009.8
20260508211510 77 135 1.0 3.0 0.00 0.00 0.00 63 1009.9
20260508210016 77 144 1.0 4.0 0.00 0.00 0.00 63 1010.0
20260508204522 77 27 2.0 7.0 0.00 0.00 0.00 62 1010.0
20260508203026 78 35 4.0 8.0 0.00 0.00 0.00 62 1010.0
20260508201506 77 68 2.0 6.0 0.00 0.00 0.00 62 1010.1
20260508200037 76 12 0.0 7.0 0.00 0.00 0.00 61 1010.2
20260508194528 76 111 2.0 5.0 0.00 0.00 0.00 66 1010.7
20260508193023 76 63 3.0 7.0 0.00 0.00 0.00 65 1010.7
20260508191507 74 90 2.0 5.0 0.00 0.00 0.00 67 1011.2
20260508190011 74 67 2.0 7.0 0.00 0.00 0.00 67 1011.2
20260508184551 75 86 1.0 4.0 0.00 0.00 0.00 66 1011.2
20260508183020 74 154 0.0 5.0 0.00 0.00 0.00 69 1011.6
20260508181542 74 32 1.0 7.0 0.00 0.00 0.00 69 1011.9
20260508180010 74 28 1.0 5.0 0.00 0.00 0.00 66 1012.4
20260508174529 73 154 1.0 4.0 0.00 0.00 0.00 67 1012.7
20260508173026 73 248 2.0 6.0 0.00 0.00 0.00 67 1012.8
20260508171524 72 161 1.0 7.0 0.00 0.00 0.00 69 1012.9
20260508170033 72 219 2.0 9.0 0.00 0.00 0.00 68 1013.3
20260508164511 74 136 1.0 8.0 0.00 0.00 0.00 67 1013.6
20260508163028 72 186 2.0 11.0 0.00 0.00 0.00 71 1013.5
20260508161530 72 135 2.0 7.0 0.00 0.00 0.00 73 1014.0
20260508160029 72 123 5.0 10.0 0.00 0.00 0.00 70 1014.2
20260508154531 70 214 4.0 9.0 0.00 0.00 0.00 71 1014.4
20260508153014 69 148 3.0 8.0 0.00 0.00 0.00 74 1014.3
20260508151523 69 182 3.0 6.0 0.00 0.00 0.00 75 1014.5